Regional Weather Roundup
Issued by NWS Northern Indiana

Home | Current Version | Previous Version | Text Only | Print | Product List | Glossary Off
Versions: 1 2 3 4 5 6 7 8 9 10 11 12 13 14 15 16 17 18 19 20 21 22 23 24 25 26 27 28 29 30 31 32 33 34 35 36 37 38 39 40 41 42 43 44 45 46 47 48 49 50

000
ASUS43 KIWX 161701
RWRIWX

KIWX WEATHER ROUNDUP
NATIONAL WEATHER SERVICE NORTHERN INDIANA
100 PM EDT WED AUG 16 2017

NOTE: "FAIR" INDICATES FEW OR NO CLOUDS BELOW 12,000 FEET WITH NO
SIGNIFICANT WEATHER AND/OR OBSTRUCTIONS TO VISIBILITY.

* THESE STATIONS ARE NOT UNDER NWS QUALITY CONTROL. THEY ALSO MAY NOT
  REPORT WEATHER SUCH AS PRECIPITATION OR FOG.

INZ001>027-161800-
NORTHERN INDIANA

CITY           SKY/WX    TMP DP  RH WIND       PRES   REMARKS
GARY*          MOSUNNY   86  66  51 S3        29.99F
MICHIGAN CITY* MOSUNNY   86  70  58 S5        30.01F
SOUTH BEND     MOSUNNY   83  69  62 S12       30.02F
ELKHART*       MOSUNNY   82  66  57 S7        30.02F
GOSHEN         PTSUNNY   82  66  58 SW7       30.03S
MONTICELLO*    MOSUNNY   85  69  58 SE7       30.01S
WARSAW*        PTSUNNY   82  68  61 SE7       30.03F
FORT WAYNE     MOSUNNY   85  64  49 S6        30.03F

$$
INZ028>050-161800-
CENTRAL INDIANA

CITY           SKY/WX    TMP DP  RH WIND       PRES   REMARKS
LAFAYETTE      MOSUNNY   84  71  65 VRB5      30.00F
KOKOMO*        MOSUNNY   85  71  63 S9        30.04F
MUNCIE*        PTSUNNY   88  67  49 VRB3      30.03F
INDIANAPOLIS   CLOUDY    85  69  58 S10       30.02F

$$
MIZ043>046-050>051-056>058-064>065-071>073-077>080-161800-
SOUTHWEST LOWER MICHIGAN

CITY           SKY/WX    TMP DP  RH WIND       PRES   REMARKS
BATTLE CREEK   CLOUDY    83  65  54 VRB7      30.05F
BENTON HARBOR  MOSUNNY   86  65  49 S9        30.00F
COLDWATER*     MOSUNNY   82  64  52 SE7       30.04F
HILLSDALE*     MOSUNNY   81  64  57 SE6       30.06F
HOLLAND        MOSUNNY   82  67  60 VRB5      30.02F
GRAND RAPIDS   PTSUNNY   82  63  52 S7        30.03F
KALAMAZOO      PTSUNNY   84  62  47 VRB5      30.03F
STURGIS*       PTSUNNY   83  64  53 S3        30.03F
THREE RIVERS*  FAIR      87  62  43 S8        30.03F

$$
OHZ001>008-015>018-024>025-161800-
NORTHWEST OHIO

CITY           SKY/WX    TMP DP  RH WIND       PRES   REMARKS
DEFIANCE       MOSUNNY   84  65  52 SE8       30.04F
FINDLAY        PTSUNNY   85  67  54 S6        30.04F
TOLEDO EXPRESS SUNNY     81  64  56 VRB6      30.05F
TOLEDO METCALF SUNNY     82  63  52 E8        30.07F
LIMA           CLOUDY    85  69  58 SE6       30.04F

$$
AND FOR LAKE MICHIGAN COASTAL AND OPEN LAKE BUOY OBSERVATIONS

STATION/POSITION TEMP    WIND        PRES    VSBY  WAVE
                 AIR SEA DIR/SP/G                  HT/PER
                 (F)     (DEG/KT/KT) (MB)    (MI)  (FT/S)
CALUMET HARBOR    74      50/  6/  6 1015.3F
MICHIGAN CITY     81     310/  2/  5   N/A
BURNS HARBOR      79      CALM  /  6 1016.3S
SAINT JOSEPH      78      10/  4/  6 1016.9
SOUTH LAKE BUOY   71 71   80/  6/  6 1016.4          1
4 MI NW BRIDGMAN  76 76   40/  2/  4 1015.8F         1/ 4
MICHIGAN CITY     76 75   50/  4/  6   N/A           1/ 4

$$
&&




USA.gov is the U.S. government's official web portal to all federal, state and local government web resources and services.